[[{"header":{"parameterUnit":"m.s-1","parameterCategory":1,"la1":30.2991,"la2":30.254,"lo1":-89.0895,"lo2":-89.0444,"dy":0.0017,"dx":0.0017,"nx":28,"ny":28,"refTime":"2025-05-31T03:00:00:Z","depth":0,"parameterNumber":2,"parameterNumberName":"U-component_of_WINDS"},"data":[0,0,0,0,0,0,0,0,0,0,0,0,0,0,0,0,0,0,0,0,0,0,0,0,0,0,0,0,0,0,0,0,0,0,0,0,0,0,0,0,0,0,0,0,0,0,0,0,0,0,0,0,0,0,0,0,0,0,2.8139,2.8138,0,2.8042,2.804,2.8039,2.7908,2.7905,2.7903,2.7901,2.7804,2.7803,2.7803,0,0,0,0,0,0,0,0,0,0,0,0,0,2.8213,2.8212,2.8139,2.8138,2.8137,2.8042,2.804,2.8039,2.7908,2.7905,2.7903,2.79,2.7804,2.7803,2.7803,0,0,0,0,0,0,0,0,0,0,0,0,0,2.8155,2.8212,2.8139,2.806,2.8051,2.8042,2.804,2.8039,2.7908,2.7905,2.7902,2.7899,2.7804,2.7803,2.7803,2.7864,0,0,2.78,2.78,0,0,0,0,0,0,0,0,2.8158,2.8152,2.8072,2.8065,2.8056,2.7983,2.8031,2.798,2.7909,2.7963,2.7901,2.7897,2.7866,2.786,2.7849,2.7859,2.7855,2.78,2.78,2.7799,2.7799,0,0,0,0,0,0,0,2.8162,2.8156,2.81,2.8072,2.8061,2.8029,2.8017,2.802,2.7934,2.7958,2.7948,2.7938,2.7861,2.785,2.7846,2.7854,2.78,2.7799,2.7799,2.7799,2.7909,2.7912,0,0,0,0,0,0,2.8178,2.816,2.8103,2.8097,2.81,2.8031,2.8017,2.801,2.7934,2.7919,2.7941,2.7932,2.7853,2.7847,2.7842,2.7908,2.7799,2.7799,2.7798,2.7905,2.7909,2.7913,0,0,0,0,0,0,2.818,2.8174,2.8107,2.8126,2.8115,2.8033,2.8026,2.801,2.7999,2.7921,2.7906,2.7946,2.785,2.7843,2.7859,2.7903,2.7798,2.7797,2.7901,2.7906,2.7911,2.8042,0,0,0,0,0,0,2.8183,2.8176,2.8198,2.8127,2.8114,2.8126,2.8028,2.801,2.7997,2.7985,2.7922,2.7908,2.7847,2.7861,2.7858,2.79,2.7797,2.7897,2.7903,2.7909,2.8033,2.805,2.8065,0,0,0,0,0,2.8186,2.8239,2.82,2.8194,2.814,2.8129,2.8121,2.805,2.8002,2.8023,2.7973,2.791,2.7899,2.7864,2.786,2.7902,2.7894,2.7902,2.7909,2.8026,2.8047,2.8065,0,0,0,0,0,0,2.8318,2.8229,2.8184,2.8216,2.8181,2.8107,2.8132,2.8075,2.8054,2.8043,2.7956,2.7943,2.797,2.7937,2.79,2.7957,2.7887,2.7894,2.7977,2.7996,2.8012,2.802,2.7796,0,0,0,0,0,2.8351,2.8348,2.827,2.8306,2.8291,2.8215,2.8207,2.8155,2.8116,2.81,2.8051,2.8016,2.8004,2.7999,2.7984,2.8028,2.8012,2.8055,2.8071,2.8085,2.8092,2.8112,2.813,2.7938,2.7938,2.7938,0,0,2.8419,2.8369,2.8373,2.8332,2.8298,2.8298,2.8203,2.8207,2.8206,2.8101,2.8112,2.8076,2.8031,2.8061,2.8072,2.8035,2.8141,2.8094,2.8106,2.8105,2.8122,2.814,2.8156,2.7943,2.7942,2.7941,0,0,2.8542,2.8505,2.853,2.8498,2.8449,2.8397,2.8404,2.8338,2.8309,2.8319,2.824,2.8238,2.822,2.8191,2.8174,2.8286,2.8226,2.8284,2.8368,2.8389,2.8404,2.8417,2.8456,2.8471,2.8291,2.8291,2.8292,0,2.8632,2.8628,2.855,2.8558,2.8542,2.8447,2.8471,2.8445,2.8394,2.8385,2.8344,2.8319,2.8282,2.8303,2.8331,2.832,2.8324,2.829,2.8408,2.842,2.8431,2.8468,2.8483,2.8299,2.8298,2.8297,2.8296,0,2.8741,2.874,2.8766,2.8718,2.8705,2.8722,2.8647,2.8643,2.8593,2.8546,2.8558,2.851,2.8483,2.8484,2.8435,2.8499,2.8477,2.8424,2.8352,2.8458,2.8491,2.8504,2.8309,2.8306,2.8304,2.8302,0,0,2.8945,2.8853,2.8864,2.884,2.8779,2.8776,2.8789,2.8762,2.876,2.8728,2.8736,2.8723,2.8673,2.8654,2.86,2.8619,2.871,2.8562,2.856,2.8591,2.8776,2.8816,2.8834,2.867,2.8672,2.8674,2.8779,0,2.9055,2.9071,2.9001,2.9035,2.9032,2.8941,2.8952,2.8916,2.8873,2.8865,2.8817,2.8809,2.8743,2.8731,2.8745,2.8696,2.8746,2.8687,2.8677,2.8677,2.869,2.8851,2.8893,2.8995,2.8792,2.8794,2.8796,0,2.9186,2.916,2.9194,2.913,2.9126,2.9137,2.9106,2.91,2.9057,2.9024,2.9003,2.8941,2.8949,2.8881,2.8891,2.8853,2.8844,2.882,2.8822,2.8817,2.8743,2.885,2.9025,2.904,2.8815,2.8814,2.8812,0,2.933,2.9304,2.932,2.9303,2.9229,2.9239,2.9208,2.9162,2.915,2.9124,2.9115,2.9091,2.9077,2.906,2.8993,2.895,2.9011,2.8937,2.8984,2.8986,2.9,2.9,2.9176,2.8997,2.8997,2.8997,2.8996,0,2.946,2.9484,2.9383,2.9393,2.9417,2.9337,2.9364,2.9324,2.9284,2.9285,2.9206,2.9209,2.9121,2.9114,2.9062,2.9078,2.9073,2.9047,2.9032,2.9053,2.9056,2.9046,2.9037,2.9001,2.9,2.8999,2.8998,0,2.9624,2.9558,2.9569,2.9498,2.9481,2.9502,2.9441,2.9447,2.9399,2.9402,2.9398,2.9323,2.9311,2.9243,2.9215,2.918,2.9214,2.9186,2.9228,2.9219,2.9269,2.9265,2.9443,2.9462,2.9273,2.9275,2.9277,0,2.9711,2.9727,2.9658,2.9652,2.9625,2.9618,2.9605,2.9527,2.9517,2.947,2.9482,2.9463,2.9444,2.9429,2.9372,2.9351,2.9321,2.9385,2.9317,2.9337,2.932,2.932,2.9321,2.9399,2.9402,2.9404,2.9405,0,2.9872,2.9839,2.9823,2.9796,2.9782,2.9758,2.9728,2.9728,2.9642,2.9635,2.9621,2.9606,2.9577,2.956,2.9528,2.9497,2.9437,2.9427,2.9437,2.9457,2.9481,2.9468,2.9267,2.9423,2.9422,2.942,2.9419,2.9419,2.9999,3.0009,2.9961,2.9946,2.9916,2.989,2.9892,2.9844,2.9831,2.9801,2.9756,2.9748,2.9705,2.9656,2.963,2.9623,2.9589,2.9603,2.9606,2.961,2.9621,2.9483,2.9618,2.9617,2.9616,2.9616,2.9615,0,3.0155,3.012,3.0107,3.0067,3.0056,3.0,2.9964,2.9958,2.9952,2.9916,2.9899,2.9883,2.9865,2.9807,2.9783,2.9789,2.9761,2.9785,2.9783,2.9777,2.9653,2.9647,2.9808,2.9808,2.9808,2.9808,2.9808,2.9808,3.0235,3.0248,3.0209,3.0206,3.017,3.0161,3.0145,3.0121,3.0092,3.0077,3.0062,3.0024,2.9979,2.9952,2.9933,2.9917,2.9911,2.9945,2.9919,2.9805,2.9786,2.9768,2.9762,2.9945,2.9945,3.0043,3.0044,3.0045]},{"header":{"parameterUnit":"m.s-1","parameterCategory":1,"la1":30.2991,"la2":30.254,"lo1":-89.0895,"lo2":-89.0444,"dy":0.0017,"dx":0.0017,"nx":28,"ny":28,"refTime":"2025-05-31T03:00:00:Z","depth":0,"parameterNumber":3,"parameterNumberName":"V-component_of_WINDS"},"data":[0,0,0,0,0,0,0,0,0,0,0,0,0,0,0,0,0,0,0,0,0,0,0,0,0,0,0,0,0,0,0,0,0,0,0,0,0,0,0,0,0,0,0,0,0,0,0,0,0,0,0,0,0,0,0,0,0,0,1.2917,1.2919,0,1.3167,1.317,1.3173,1.3217,1.3215,1.3213,1.3211,1.3461,1.347,1.3478,0,0,0,0,0,0,0,0,0,0,0,0,0,1.2471,1.2479,1.2916,1.292,1.2923,1.3166,1.317,1.3173,1.3218,1.3215,1.3213,1.321,1.3459,1.3469,1.3479,0,0,0,0,0,0,0,0,0,0,0,0,0,1.2687,1.2482,1.2916,1.2974,1.2982,1.3166,1.317,1.3174,1.3218,1.3215,1.3212,1.3209,1.3455,1.3468,1.348,1.3621,0,0,1.352,1.3525,0,0,0,0,0,0,0,0,1.2675,1.2703,1.2963,1.2971,1.298,1.3158,1.3105,1.3324,1.3219,1.3128,1.3211,1.3208,1.3362,1.3383,1.3436,1.3633,1.3644,1.3521,1.3529,1.3534,1.3538,0,0,0,0,0,0,0,1.266,1.2693,1.3015,1.2966,1.2977,1.2986,1.3014,1.3146,1.3259,1.3136,1.314,1.3169,1.3366,1.3424,1.3442,1.3647,1.352,1.3532,1.354,1.3545,1.3971,1.3975,0,0,0,0,0,0,1.2635,1.268,1.3007,1.3023,1.2817,1.2997,1.3027,1.3104,1.3258,1.3279,1.3172,1.317,1.3403,1.3427,1.3451,1.3625,1.3534,1.3546,1.3553,1.3968,1.3972,1.3976,0,0,0,0,0,0,1.2625,1.2664,1.2997,1.2853,1.2896,1.3008,1.3093,1.311,1.3168,1.3285,1.3305,1.321,1.3402,1.3433,1.3579,1.3635,1.3552,1.3564,1.3963,1.3969,1.3974,1.3975,0,0,0,0,0,0,1.2612,1.266,1.2716,1.2854,1.2903,1.3122,1.3097,1.3117,1.319,1.3191,1.3326,1.3345,1.3402,1.356,1.3592,1.3651,1.3574,1.3959,1.3966,1.3972,1.397,1.3979,1.3987,0,0,0,0,0,1.2596,1.2705,1.2719,1.2758,1.2976,1.3125,1.3154,1.3218,1.3195,1.3251,1.3326,1.3341,1.3624,1.3574,1.3611,1.3674,1.3956,1.3964,1.3972,1.3966,1.3977,1.3987,0,0,0,0,0,0,1.2568,1.2724,1.2741,1.2898,1.2998,1.3133,1.3205,1.3228,1.3336,1.3331,1.3405,1.3435,1.3576,1.3641,1.3582,1.3818,1.3788,1.3804,1.3771,1.3783,1.3791,1.3771,1.3584,0,0,0,0,0,1.2581,1.2691,1.2821,1.2946,1.2996,1.3092,1.316,1.3201,1.3307,1.3349,1.3435,1.3536,1.3648,1.3719,1.3829,1.3981,1.4009,1.4043,1.4051,1.4058,1.4069,1.4153,1.4168,1.4003,1.4003,1.4002,0,0,1.2606,1.2705,1.277,1.2943,1.3026,1.3136,1.3127,1.3245,1.3327,1.3366,1.3509,1.3576,1.3693,1.3842,1.3912,1.39,1.4122,1.4068,1.4072,1.4081,1.4163,1.4178,1.4192,1.4008,1.4007,1.4006,0,0,1.2709,1.2797,1.291,1.2994,1.3121,1.3184,1.3212,1.3344,1.339,1.3536,1.3567,1.3665,1.3856,1.3938,1.4005,1.4141,1.4157,1.4174,1.4218,1.4299,1.4312,1.4323,1.4369,1.4385,1.4186,1.4186,1.4186,0,1.2724,1.2894,1.2965,1.3082,1.3156,1.3201,1.3315,1.3392,1.3547,1.3596,1.3581,1.3822,1.3904,1.4072,1.4106,1.4159,1.419,1.4158,1.4305,1.4317,1.4329,1.4374,1.4391,1.4187,1.4187,1.4187,1.4187,0,1.2906,1.3023,1.31,1.325,1.3334,1.3449,1.3535,1.3611,1.3646,1.371,1.3856,1.3957,1.4087,1.4131,1.4165,1.4304,1.4292,1.429,1.426,1.4345,1.4388,1.4406,1.4189,1.4189,1.4188,1.4188,0,0,1.2994,1.3185,1.3212,1.328,1.3424,1.3515,1.3632,1.3761,1.3824,1.393,1.4027,1.4189,1.4188,1.4264,1.4308,1.4379,1.4478,1.4369,1.4372,1.4383,1.4634,1.4632,1.4651,1.4491,1.4495,1.4498,1.4623,0,1.3112,1.3324,1.3392,1.3567,1.3675,1.372,1.3821,1.3919,1.3983,1.4082,1.4152,1.4265,1.4257,1.4302,1.4375,1.445,1.4528,1.4443,1.458,1.4584,1.4546,1.4674,1.4673,1.4786,1.4641,1.4644,1.4646,0,1.3277,1.3388,1.3575,1.3705,1.3753,1.3843,1.3967,1.4063,1.4175,1.4216,1.4302,1.434,1.4462,1.4428,1.4594,1.4534,1.4595,1.464,1.4646,1.4659,1.4617,1.4687,1.4824,1.484,1.4674,1.4672,1.467,0,1.332,1.3516,1.3653,1.3711,1.3867,1.3929,1.3997,1.4106,1.4179,1.4288,1.4336,1.4456,1.452,1.4611,1.4681,1.465,1.4841,1.4813,1.4876,1.4874,1.4911,1.4907,1.5056,1.4955,1.4955,1.4954,1.4954,0,1.3442,1.3554,1.3674,1.3758,1.3884,1.3961,1.4083,1.4153,1.425,1.4346,1.4392,1.4481,1.4569,1.4669,1.4725,1.4853,1.4882,1.4917,1.493,1.4911,1.4906,1.4949,1.4942,1.4959,1.4958,1.4957,1.4956,0,1.3509,1.3595,1.3747,1.3884,1.3921,1.4007,1.4123,1.4205,1.4272,1.4394,1.4426,1.453,1.4651,1.473,1.4883,1.492,1.5059,1.5071,1.5022,1.5027,1.5085,1.5077,1.5264,1.5292,1.5174,1.5175,1.5176,0,1.358,1.3667,1.3815,1.3884,1.3953,1.4064,1.414,1.422,1.4296,1.4431,1.4496,1.462,1.4723,1.4913,1.5,1.5117,1.5131,1.5189,1.5148,1.5127,1.5128,1.5121,1.5129,1.5194,1.5195,1.5195,1.5196,0,1.3696,1.3735,1.3844,1.3969,1.4059,1.416,1.4261,1.4315,1.4411,1.4495,1.462,1.4701,1.4858,1.498,1.5105,1.5172,1.5199,1.5209,1.5229,1.5209,1.5176,1.5192,1.5036,1.5203,1.5202,1.5202,1.5201,1.5201,1.3765,1.3845,1.3961,1.4082,1.4167,1.4261,1.4345,1.4423,1.453,1.4666,1.4706,1.4836,1.4945,1.5117,1.5187,1.5287,1.5281,1.5311,1.5318,1.5323,1.5322,1.5163,1.5311,1.5311,1.5311,1.531,1.531,0,1.3881,1.3959,1.4069,1.4211,1.4305,1.4327,1.444,1.4517,1.4631,1.4732,1.4834,1.4977,1.5095,1.5193,1.5315,1.5377,1.5392,1.5406,1.54,1.5415,1.5322,1.5291,1.5391,1.5391,1.5391,1.5391,1.5391,1.5391,1.3952,1.4088,1.414,1.4318,1.4395,1.4524,1.4587,1.4673,1.4754,1.4913,1.5013,1.5077,1.5177,1.5306,1.5415,1.5441,1.5482,1.5492,1.552,1.5431,1.5421,1.5412,1.5384,1.5501,1.5501,1.5604,1.5605,1.5605]}]]